Theta_e
301 301 301 301 298 298 298 297 297 297 298 299 296 297 298 299 292 290 302 306 302 304 306 305 304 305 304 305 306 307 308 307 307 307 307 307 307 308 308 309 309 309 309 311 312 312 313 314 314 315 316 316 317 317 317 318 319 319 320 320 319 320 320 319 320 321 322 322 322 323 324 325 324 325 327 327 328 329 328 328 328 328 330 330 328 328 328
298 298 299 301 298 297 297 297 297 298 298 298 298 298 299 298 297 304 304 305 305 306 305 305 305 307 307 306 307 307 307 307 307 306 306 306 306 307 307 308 309 309 310 311 312 313 313 313 313 313 315 315 315 316 316 317 318 319 320 320 319 319 319 319 319 320 320 320 319 320 320 320 320 321 322 323 325 326 326 326 327 329 329 329 328 328 327
296 300 301 300 300 298 297 297 298 298 298 298 298 299 304 306 303 304 305 304 302 307 307 306 307 307 307 306 305 305 306 307 306 306 306 306 306 307 307 308 308 309 310 310 311 312 313 313 314 314 315 315 316 316 317 317 317 319 319 319 319 319 318 319 319 319 318 317 317 317 317 317 318 317 318 319 320 321 322 322 324 326 327 326 327 328 327
292 299 299 299 300 301 300 299 300 300 300 297 299 300 307 302 302 303 304 300 296 302 306 305 304 305 304 304 304 304 305 306 306 306 307 307 307 307 307 308 309 309 309 309 310 311 312 313 314 314 314 315 315 315 316 317 317 318 319 318 318 318 318 318 317 317 316 315 315 314 315 315 315 315 315 315 315 315 316 317 319 321 321 322 323 324 324
289 297 300 299 296 298 295 295 299 303 300 301 307 307 308 307 307 301 297 300 301 300 302 300 302 303 303 303 303 303 304 306 306 306 306 307 308 308 308 307 308 309 309 309 310 311 311 312 312 313 314 314 314 315 316 317 317 317 317 318 317 317 317 317 316 316 314 313 313 313 313 314 314 314 313 312 311 312 311 313 315 315 316 317 318 320 319
289 296 299 297 293 285 287 297 302 304 303 302 302 303 304 306 308 304 305 300 300 300 301 300 300 301 301 302 305 307 306 306 306 306 307 307 308 309 309 309 309 308 309 309 310 310 310 310 312 313 315 314 315 316 316 316 316 316 315 316 316 316 315 315 315 315 314 313 312 312 313 313 313 313 312 310 310 310 309 309 309 308 309 311 313 314 314
290 295 297 289 283 285 295 301 303 304 305 306 304 304 306 305 304 303 300 299 299 300 300 300 300 301 302 303 304 305 307 307 306 305 306 306 306 307 308 309 308 308 308 309 309 308 308 309 311 312 312 314 315 315 316 315 315 315 315 316 315 314 314 314 314 314 314 313 312 312 313 313 313 311 311 310 309 308 308 307 308 306 305 306 307 308 309
294 291 292 282 284 293 299 301 303 305 305 304 302 299 302 304 303 302 300 300 299 298 297 298 299 299 300 301 302 303 305 306 305 305 305 305 305 304 305 306 307 307 307 307 307 307 308 309 310 311 311 314 314 315 315 315 314 314 315 314 314 313 312 312 313 313 313 312 312 312 312 312 311 310 309 308 307 307 307 307 307 307 306 306 304 304 305
287 290 290 288 292 294 296 297 299 302 300 301 299 291 295 302 302 301 297 297 296 296 296 296 296 297 297 295 296 302 304 305 306 306 304 304 304 304 305 305 305 306 306 306 307 308 308 308 309 310 312 313 314 314 314 313 313 314 313 313 312 312 311 312 312 313 313 312 312 311 311 311 310 309 309 307 307 307 306 305 304 304 304 305 305 304 303
294 289 286 287 287 285 291 300 304 306 307 308 307 299 294 301 302 301 297 295 295 294 294 295 296 297 294 290 291 297 301 303 303 304 304 304 304 303 304 304 304 304 305 306 306 306 307 308 309 310 312 312 312 313 312 312 313 312 312 312 312 311 311 311 312 312 312 312 311 311 311 310 309 309 309 308 307 307 305 304 303 303 303 303 303 303 302
291 290 287 286 285 287 297 300 303 306 307 308 308 299 292 299 301 301 299 296 295 294 293 294 296 298 293 289 291 296 300 302 303 302 302 303 304 304 304 303 302 303 303 304 305 305 306 307 308 310 311 312 311 311 311 312 312 311 311 311 311 311 310 311 311 311 311 312 312 311 310 309 309 308 307 306 306 306 305 304 303 303 302 302 301 301 301
291 290 287 286 290 287 297 301 303 304 307 306 303 290 290 300 303 302 300 297 295 296 297 297 299 299 291 289 292 298 300 301 302 302 301 301 301 301 302 303 303 304 303 303 303 304 304 305 307 308 310 310 310 309 310 311 310 310 310 311 311 311 310 310 310 310 311 310 310 310 309 308 307 306 306 305 305 305 304 305 304 303 302 302 301 300 301
291 288 289 289 289 296 302 302 304 305 306 303 291 287 296 302 303 303 301 299 298 297 297 299 293 295 299 296 296 299 300 300 300 302 302 302 301 300 301 301 301 303 303 303 302 302 303 304 306 307 308 308 307 308 309 309 308 309 311 312 312 311 310 310 310 310 310 309 308 308 308 308 307 306 305 304 305 305 305 305 304 303 303 301 300 300 300
290 291 289 289 290 296 302 303 304 306 300 289 290 298 306 304 303 303 301 299 299 299 298 297 296 296 297 297 298 299 300 301 301 301 301 301 301 301 301 301 301 303 303 303 304 304 304 304 304 305 306 305 305 307 307 308 309 310 311 311 311 311 310 309 309 309 308 309 309 308 307 306 304 303 303 303 303 304 304 303 303 303 303 302 300 299 300
292 292 288 286 283 291 302 303 302 304 295 296 302 303 304 305 303 301 300 299 298 297 295 296 296 296 297 298 298 299 300 300 300 299 300 299 299 299 300 300 300 302 302 302 302 303 303 304 304 304 304 304 304 305 305 307 309 310 310 310 310 310 309 308 307 306 306 306 306 306 306 305 304 302 302 302 301 301 300 300 300 300 300 300 300 299 299
288 290 286 286 294 299 302 302 294 300 302 305 305 304 301 302 302 300 298 297 297 297 295 294 294 296 296 297 297 297 298 299 299 300 300 300 300 300 301 301 301 302 302 303 303 304 304 304 304 304 303 302 302 302 303 306 308 308 309 309 309 308 307 306 306 305 304 304 304 304 304 303 303 303 302 302 301 301 300 299 299 298 298 299 299 298 297
293 289 290 294 299 300 303 304 303 304 305 306 306 304 302 300 299 301 298 297 297 297 296 295 295 294 295 296 297 297 297 299 300 300 299 299 299 300 301 301 302 302 302 302 303 303 304 305 305 304 303 302 301 301 303 304 304 304 304 304 305 304 304 304 304 304 305 305 305 305 304 303 301 300 301 301 301 302 301 300 299 298 298 298 297 297 297
297 297 297 298 299 300 300 303 304 304 304 306 305 303 301 301 302 302 299 298 297 297 297 295 295 295 296 296 297 297 298 299 299 299 299 299 300 300 301 301 301 301 302 303 303 303 303 304 304 304 304 303 302 302 304 304 303 303 303 302 302 302 302 302 302 302 302 302 303 304 305 305 303 302 301 300 299 299 299 300 300 299 298 299 299 298 298
295 288 297 296 296 299 300 301 304 305 305 304 305 304 303 302 301 300 299 299 298 298 297 296 296 296 297 296 296 297 297 298 299 299 299 300 301 301 299 300 300 301 302 302 302 302 302 304 304 304 304 304 304 304 304 304 304 304 302 302 301 302 301 301 301 301 301 300 300 301 302 302 303 303 301 300 299 298 298 298 298 298 299 299 299 298 298
293 290 294 296 299 300 302 302 302 302 303 304 305 304 303 302 301 300 298 298 298 298 297 296 296 296 297 296 296 296 296 297 297 297 297 297 297 298 300 303 303 302 302 301 302 302 302 303 304 304 304 304 304 304 304 304 304 304 303 302 302 301 301 301 301 301 301 294 297 299 299 299 299 300 301 300 297 297 297 297 298 298 298 298 300 299 297
292 295 295 295 297 297 299 302 303 303 303 303 303 303 302 301 300 301 301 301 300 300 299 299 298 296 296 297 296 295 296 296 296 296 296 296 296 297 298 299 300 301 301 301 301 301 301 303 304 303 304 304 304 304 304 304 303 302 301 301 302 302 302 302 301 301 302 302 301 301 300 298 298 298 299 299 298 297 297 297 296 297 299 298 300 301 298
290 290 292 297 292 290 295 298 301 302 304 303 302 302 300 300 300 300 300 299 300 300 300 299 298 296 295 296 296 294 295 295 295 295 295 296 296 297 298 298 299 299 300 301 301 300 301 302 302 302 303 303 304 304 305 304 304 302 301 301 301 301 302 302 302 302 302 301 301 301 302 300 298 296 289 290 296 298 296 290 288 288 290 294 296 300 300
292 298 299 302 303 299 297 299 301 303 303 302 301 301 300 300 301 301 300 298 298 298 298 299 298 297 296 296 297 296 295 295 296 296 295 295 295 296 298 298 299 299 300 300 300 299 300 301 301 302 303 303 304 304 304 305 304 303 303 301 300 300 300 300 299 302 301 301 301 301 302 302 302 298 297 295 288 289 291 290 289 289 289 289 289 288 294
300 302 302 303 300 296 297 300 301 302 303 302 301 302 302 302 301 301 300 300 298 298 298 298 298 298 298 298 297 296 296 297 297 296 297 297 297 297 298 299 300 300 300 300 299 299 301 301 302 302 302 303 303 303 304 304 304 304 303 302 301 300 300 300 300 301 301 301 301 301 300 301 301 302 301 298 295 290 288 289 289 289 289 288 289 289 288
299 302 302 301 300 299 300 301 301 302 302 302 300 300 301 300 301 301 300 299 300 299 298 297 298 299 298 298 297 296 296 296 296 296 296 296 296 298 299 299 299 300 300 301 301 301 302 302 302 302 302 302 303 302 303 302 302 301 302 302 302 302 302 302 301 300 299 300 301 301 300 300 301 300 299 299 298 297 292 289 289 289 289 289 289 289 289
300 300 300 300 300 299 300 300 299 300 300 301 300 300 300 300 300 300 299 299 298 299 298 298 298 299 299 297 297 296 296 296 296 296 297 296 297 298 299 299 300 301 301 302 302 301 302 302 302 302 301 302 302 303 303 303 302 301 300 300 300 300 301 302 301 302 301 301 300 300 300 300 299 299 299 300 299 299 298 298 293 290 289 289 289 288 288
300 300 298 296 296 296 298 296 295 299 299 300 300 300 300 300 298 299 299 299 299 299 299 299 299 299 299 298 297 297 297 297 298 298 298 298 298 299 300 301 301 301 301 301 300 299 298 301 301 301 301 302 303 303 303 304 303 303 303 302 301 295 291 295 301 300 300 301 301 300 300 300 299 298 299 298 299 298 297 297 298 296 297 296 293 292 295
299 300 300 295 293 294 295 297 298 299 299 299 299 298 298 299 298 297 297 297 297 298 298 298 298 297 297 298 298 297 297 298 298 298 298 298 299 300 301 301 301 300 300 299 300 300 301 301 301 301 301 302 303 303 303 303 303 302 302 302 302 302 302 300 300 300 300 300 300 300 299 299 300 298 299 298 298 299 297 297 297 298 297 299 298 291 290
299 300 300 299 298 298 298 298 297 297 297 298 298 298 298 297 296 296 295 296 297 297 297 298 298 298 297 298 298 298 298 299 298 298 298 299 300 300 301 301 301 301 301 300 301 301 301 301 301 300 301 302 303 303 302 302 301 300 299 300 300 301 301 301 301 301 301 300 300 300 295 297 298 299 298 298 297 298 298 297 297 297 298 297 299 300 296
298 299 299 298 299 299 297 296 295 296 296 296 296 296 297 296 295 295 295 296 296 295 296 297 296 296 297 297 298 299 298 298 298 298 298 299 300 300 300 300 300 300 300 300 300 300 300 300 300 300 300 302 302 302 302 302 300 300 299 299 299 299 299 300 302 301 300 299 298 294 297 298 298 298 297 298 298 297 296 296 296 295 297 297 294 295 295
298 299 299 298 298 298 297 296 296 296 296 296 296 295 295 296 295 295 295 296 295 294 295 296 297 298 299 300 300 299 299 299 299 298 299 299 300 300 300 300 298 297 298 299 300 300 300 300 300 300 302 303 303 303 303 302 302 302 301 299 298 292 289 290 293 299 300 298 297 298 299 298 298 297 295 297 296 297 297 297 296 296 296 297 296 294 295
297 297 297 296 296 295 295 295 295 294 294 295 294 293 294 294 293 293 293 293 293 294 295 297 297 296 296 297 298 298 299 298 298 299 300 300 300 301 300 300 300 296 300 300 300 300 300 300 300 301 302 302 302 302 302 302 302 301 300 296 299 299 296 291 298 296 297 296 298 298 296 297 298 297 298 296 297 296 297 295 294 295 296 296 295 295 295
295 293 293 293 293 293 293 294 294 293 293 293 293 294 294 293 293 292 292 293 293 294 295 296 296 297 297 297 296 297 297 298 298 299 299 299 299 300 300 300 300 301 300 300 301 301 301 300 300 301 302 302 302 302 302 303 302 301 301 301 300 299 294 294 294 298 297 299 298 298 298 297 297 298 297 296 296 294 296 295 294 295 296 296 297 297 295
296 295 295 295 294 293 293 293 294 292 292 293 293 293 293 293 293 293 293 294 295 296 297 297 297 296 296 296 295 295 296 296 295 295 298 299 299 300 300 300 301 301 301 301 301 301 300 301 301 302 302 302 302 303 303 303 302 302 302 301 300 299 299 298 297 298 297 296 297 298 297 298 297 297 296 296 296 296 294 293 294 294 295 296 297 297 292
298 299 299 298 298 297 296 294 293 292 292 291 292 292 293 294 294 295 295 296 296 297 297 297 296 296 296 296 294 293 292 291 291 293 297 296 295 294 298 300 300 300 300 301 301 301 302 302 302 302 302 302 302 302 303 302 302 301 301 300 300 299 299 297 298 298 297 297 297 298 297 297 297 294 295 297 297 296 296 295 294 294 295 295 297 297 295
299 297 297 296 297 296 295 294 294 293 293 293 293 295 295 295 296 296 296 297 298 297 297 296 296 296 295 293 289 287 288 288 288 289 290 290 292 295 297 299 300 300 300 300 301 302 303 302 290 286 305 302 301 301 303 302 303 302 302 300 298 298 297 298 298 298 298 298 297 297 297 294 295 295 298 297 297 297 297 297 294 295 294 296 296 295 296
298 297 297 296 296 296 295 296 297 296 295 295 296 296 296 296 296 297 298 298 297 297 297 297 296 293 288 288 288 288 288 290 292 291 291 291 293 295 297 299 299 299 299 297 299 302 302 301 291 285 297 302 300 300 304 287 301 301 302 301 301 299 298 298 298 298 299 298 297 298 295 295 297 297 295 298 297 296 296 296 295 297 296 295 295 295 295
298 298 296 296 297 296 296 296 297 297 296 296 297 297 297 297 297 298 298 298 297 298 298 297 294 293 292 291 290 288 288 288 288 289 290 291 296 298 299 298 296 297 296 294 300 302 301 296 288 295 303 302 300 300 297 286 286 300 302 300 300 299 298 298 298 298 297 298 295 298 298 297 297 297 297 297 298 297 297 296 295 295 297 296 295 295 295
297 299 299 298 298 298 298 297 297 297 297 296 296 296 297 298 298 298 297 297 298 297 297 295 293 293 293 292 291 291 292 290 289 289 290 291 295 297 294 296 298 298 297 299 302 302 298 297 300 302 302 302 300 299 296 292 289 300 300 301 300 300 298 298 297 297 297 299 297 297 298 297 298 296 297 297 298 295 294 296 296 295 297 296 296 296 296
296 296 296 297 297 297 297 297 297 297 299 299 297 297 298 297 297 297 297 296 297 296 295 293 294 293 294 293 293 292 293 294 294 292 293 295 296 296 295 297 299 300 298 294 301 301 296 292 297 304 301 300 301 298 296 296 294 300 302 301 300 299 299 298 299 298 298 298 298 294 297 296 296 296 296 295 297 296 296 296 296 296 296 297 297 297 296
296 295 296 296 297 297 298 297 297 298 298 298 299 298 298 297 296 296 295 295 296 296 294 294 294 294 294 294 293 293 294 294 294 294 295 296 296 294 292 292 296 298 298 301 301 299 296 296 300 302 300 300 301 295 297 294 297 301 301 300 300 299 299 297 297 298 298 297 297 297 297 298 296 296 296 296 297 297 296 297 297 297 297 296 296 297 297
297 297 298 298 297 297 297 297 298 297 298 299 298 298 298 297 296 295 295 295 295 295 294 295 292 294 295 295 295 295 295 295 296 296 297 296 297 295 293 295 298 297 294 294 294 295 298 299 299 297 300 300 299 291 290 298 300 301 300 300 299 298 298 298 299 298 298 299 298 299 297 297 297 297 296 297 297 296 297 297 297 297 297 297 296 297 297
298 298 297 296 297 297 297 297 296 297 297 298 298 299 298 298 296 295 295 295 295 294 295 296 295 294 296 296 296 296 296 296 296 297 297 299 301 301 298 298 299 298 289 295 297 297 297 299 300 302 295 298 297 287 287 298 301 301 300 300 297 297 298 298 298 298 298 299 298 298 298 298 297 297 296 296 296 297 296 296 297 297 296 297 297 297 297
299 298 298 297 297 298 298 298 298 298 298 298 299 299 299 297 296 294 294 295 295 295 296 296 296 297 297 297 296 296 296 296 297 297 297 298 299 301 302 300 300 294 288 295 297 298 298 298 299 296 286 287 286 287 297 300 301 300 299 299 298 298 298 298 300 299 299 297 297 298 298 296 297 298 297 296 297 297 296 296 297 297 297 297 298 297 297
299 298 298 298 299 298 298 298 298 298 298 299 299 299 298 297 296 295 295 295 296 296 296 296 297 297 298 297 297 298 298 298 298 298 297 296 296 297 301 295 297 294 292 292 297 298 300 300 297 289 289 287 287 288 298 300 301 300 300 299 299 299 298 298 298 298 297 298 298 297 297 297 298 297 297 296 294 296 296 296 297 297 297 297 296 297 297
299 299 299 293 298 298 298 299 299 299 299 298 298 297 297 297 296 295 295 296 297 297 297 298 298 298 299 298 299 300 300 299 300 301 301 301 298 300 301 296 298 294 291 290 297 299 301 289 287 288 288 287 288 297 298 298 299 299 300 299 299 297 298 298 298 298 298 297 297 298 298 298 298 298 298 297 297 296 296 294 294 297 297 297 297 297 297
299 299 299 299 299 299 300 299 299 298 298 297 296 296 297 298 297 297 297 298 298 298 298 298 299 299 300 300 299 299 299 299 300 300 302 302 300 299 296 293 290 289 291 296 298 299 299 294 290 287 287 287 288 297 298 299 300 301 299 299 298 299 298 299 298 299 298 298 297 296 294 295 297 298 296 296 297 296 296 294 296 296 296 295 297 296 294
298 298 299 299 298 299 299 298 297 297 296 296 296 297 298 299 298 298 299 299 299 299 300 300 299 300 300 301 301 302 301 300 297 299 301 302 303 302 300 302 299 291 291 292 294 293 288 289 287 287 287 286 295 298 299 299 299 300 299 299 299 299 299 299 299 299 299 298 297 298 297 298 298 297 297 297 297 296 296 295 295 296 296 296 294 295 296
299 299 299 299 299 299 298 297 297 295 296 297 297 297 298 299 299 299 299 300 299 299 299 300 300 301 301 300 300 302 302 302 301 299 301 302 302 302 302 296 289 287 293 299 300 300 290 287 286 287 286 287 297 297 298 299 298 299 298 298 298 298 299 299 299 299 299 299 298 297 297 297 298 298 297 297 295 297 295 296 295 295 295 295 295 295 295
299 299 298 298 298 298 297 297 297 297 298 298 297 298 299 299 297 298 298 299 299 299 300 300 300 300 301 301 301 301 302 302 302 303 302 302 303 303 301 300 299 292 293 300 301 301 289 285 286 286 289 295 296 297 298 299 299 298 299 299 297 298 297 297 294 294 298 298 298 297 297 296 298 295 294 295 295 296 296 295 296 295 291 293 295 295 295
298 297 297 297 298 299 299 299 299 298 299 298 299 298 297 297 297 297 299 299 299 298 298 299 300 300 300 301 301 301 302 302 301 299 301 301 302 298 297 299 300 295 296 298 299 301 298 297 297 292 292 295 296 297 297 299 299 298 296 297 298 297 297 297 297 298 299 298 297 298 297 297 298 298 297 296 295 296 296 296 295 295 295 296 296 296 296
299 299 299 299 299 299 300 299 300 300 300 299 299 299 298 298 298 298 298 293 299 298 298 299 298 300 301 301 300 301 301 301 300 300 298 299 300 301 299 296 301 298 300 300 300 301 300 298 294 290 291 296 297 297 294 294 297 298 298 296 296 298 297 298 297 297 299 297 298 298 297 297 297 297 296 296 296 296 295 294 295 296 296 296 296 295 296
Wind_Speed
3 3 6 10 19 19 17 19 18 19 21 20 19 17 15 11 7 4 17 20 20 21 19 18 18 18 17 17 16 14 14 13 12 12 12 11 11 10 9 9 9 10 10 9 10 9 9 9 9 9 9 9 9 9 9 9 9 10 10 10 10 10 10 10 11 11 10 10 11 12 12 12 13 13 12 12 10 8 8 6 6 8 8 8 8 8 7
6 5 5 6 13 16 19 18 14 14 18 18 15 10 11 12 8 15 11 11 14 16 17 16 15 16 17 15 14 14 14 14 13 13 12 11 11 10 10 10 10 10 10 10 10 10 10 10 9 9 8 9 9 9 9 10 10 10 10 10 11 11 12 12 11 11 11 11 12 12 12 12 12 12 12 11 11 10 10 9 9 8 7 7 6 5 4
5 3 3 6 14 15 13 14 14 14 14 12 13 11 11 16 15 16 17 18 13 9 17 16 16 16 16 15 15 15 15 14 14 13 13 12 11 11 11 11 10 10 10 9 9 10 10 9 9 8 9 8 8 9 9 10 11 9 10 11 11 12 12 12 12 12 11 12 12 13 12 12 11 12 13 11 11 11 10 10 10 9 9 9 8 7 7
3 5 9 14 7 7 9 9 6 12 11 6 1 6 4 6 11 13 19 16 11 7 14 16 16 17 18 17 16 14 12 13 13 13 12 12 11 12 11 11 10 10 10 8 8 9 9 9 9 9 8 9 9 9 9 9 8 10 11 11 12 12 12 12 12 12 12 12 12 13 12 12 12 12 12 12 12 12 11 11 10 9 10 9 9 8 8
3 8 10 9 9 5 8 5 7 5 7 8 10 12 11 8 15 11 7 9 13 16 17 19 17 18 18 17 14 14 14 13 12 13 12 11 12 12 11 11 10 10 9 8 8 8 8 8 9 9 9 9 10 9 9 10 9 10 11 10 12 12 12 13 12 12 12 12 12 12 12 12 12 12 13 12 13 13 13 12 10 11 9 9 9 8 8
3 8 9 8 8 12 7 4 3 4 7 8 9 10 11 12 4 5 8 17 16 16 16 19 18 19 16 14 13 12 13 13 13 12 12 12 11 11 11 11 10 8 7 7 7 7 7 7 8 8 8 9 9 8 9 10 11 10 8 12 12 12 12 13 12 12 12 12 12 12 11 12 12 13 13 13 12 11 11 13 13 11 11 10 9 9 9
4 9 9 7 12 6 3 4 3 2 4 9 15 13 12 13 14 17 19 19 17 15 15 17 17 17 14 13 13 11 9 11 12 13 13 12 11 10 10 10 9 8 8 8 8 8 8 7 7 7 8 9 8 9 9 10 10 9 11 12 12 12 12 13 13 12 12 12 12 12 12 12 13 13 13 12 12 11 10 12 13 13 11 10 10 10 9
5 7 8 9 3 4 4 5 5 6 8 10 15 15 12 11 12 15 18 17 17 17 18 17 17 18 17 14 11 10 9 9 11 12 11 10 9 9 8 8 7 8 8 8 8 7 6 7 8 8 8 8 8 9 10 10 7 9 13 12 12 12 12 13 13 13 12 12 11 11 12 12 13 13 13 12 12 10 9 9 10 10 11 11 11 11 9
8 6 6 3 5 6 6 6 4 9 6 8 3 4 6 7 10 12 16 16 16 17 17 18 18 18 16 14 9 6 9 9 10 11 10 10 10 10 9 8 8 8 7 8 7 6 7 8 8 7 7 7 8 9 10 9 9 13 12 12 13 13 12 13 13 13 13 12 12 12 12 13 13 13 12 12 11 10 11 11 10 10 10 11 11 12 14
5 8 7 5 5 3 5 4 7 4 6 5 6 11 7 5 8 12 15 16 17 17 17 17 18 15 12 9 7 6 8 9 11 11 10 10 10 10 9 8 8 8 7 7 7 7 8 8 8 7 7 7 8 9 10 9 11 12 12 13 12 12 12 12 13 13 13 13 13 13 12 13 13 12 11 10 11 10 11 10 10 9 8 10 11 11 12
9 5 7 6 4 3 2 7 6 4 3 5 2 4 6 6 9 12 15 16 16 16 16 17 13 9 7 7 7 8 10 10 10 10 10 10 9 9 9 8 9 8 8 8 8 9 8 9 9 9 9 9 9 10 9 11 12 12 12 12 12 12 12 11 11 12 13 13 14 14 14 12 12 12 11 10 10 11 11 11 11 9 9 10 11 11 13
8 8 7 3 5 1 3 7 6 6 3 1 4 5 5 9 11 13 15 16 16 15 14 13 7 5 7 11 10 11 11 11 10 9 11 11 10 10 10 10 9 8 8 9 9 9 10 9 9 9 9 9 10 10 10 11 11 12 11 12 12 12 11 11 11 12 12 13 13 13 13 12 11 10 9 9 9 9 10 10 9 10 10 10 11 12 12
8 8 4 4 2 3 5 6 5 6 4 4 3 4 7 12 12 13 14 16 14 14 13 7 3 6 6 13 16 13 12 12 11 10 10 11 10 11 10 8 7 7 8 9 9 9 8 8 8 7 8 9 10 11 10 10 11 11 11 11 12 12 11 12 13 13 13 13 14 13 12 11 11 11 10 9 8 8 9 8 8 9 11 10 10 11 11
7 9 7 4 4 2 4 4 2 3 2 2 3 7 10 13 13 13 15 16 15 12 8 8 10 12 17 17 15 14 13 12 12 11 10 10 10 10 10 8 7 8 9 9 10 10 9 9 9 9 9 10 10 10 10 11 11 10 11 11 11 12 12 13 12 13 13 12 11 11 12 12 12 12 11 11 10 10 8 9 11 12 11 10 11 11 10
2 5 7 5 4 1 5 7 5 3 3 4 6 10 11 11 14 15 14 14 13 12 13 14 16 17 17 17 16 14 13 12 12 11 11 11 11 10 9 8 7 8 9 10 10 10 9 9 9 9 10 11 10 10 11 11 10 10 10 10 11 11 12 12 12 12 12 13 11 10 10 11 12 12 11 11 11 11 10 10 10 11 11 10 9 10 10
2 6 5 3 6 9 3 6 2 6 7 9 10 11 12 12 12 13 13 12 12 14 17 17 16 16 17 16 15 14 13 13 12 11 11 11 10 9 9 9 9 9 9 9 9 9 9 9 9 10 11 11 11 11 11 9 9 10 10 9 9 10 10 10 11 11 11 12 12 11 12 12 12 12 11 10 10 9 9 9 9 10 8 8 8 8 9
5 4 4 6 7 8 6 9 10 9 10 10 10 11 12 12 11 11 12 14 14 15 17 18 18 16 15 17 16 15 13 13 13 12 12 10 10 9 9 8 8 8 9 9 9 9 9 9 9 10 10 11 12 12 10 9 9 10 10 10 9 10 10 10 10 10 10 10 9 10 10 11 11 11 12 11 10 10 9 8 8 8 8 8 8 7 7
15 14 11 7 8 9 10 9 9 10 11 11 11 12 11 10 11 11 13 15 16 15 15 17 14 15 17 18 16 15 12 11 11 11 11 10 10 9 9 8 8 8 9 9 9 10 10 10 10 9 9 10 11 10 9 9 10 10 10 10 10 10 10 10 11 10 10 11 12 11 10 9 10 10 11 11 10 10 10 9 9 9 9 8 8 8 8
4 6 6 9 10 9 10 9 8 10 10 11 10 11 11 12 13 14 15 15 17 16 14 15 17 15 15 15 16 15 13 12 12 13 12 11 11 11 11 10 8 8 8 9 10 10 11 10 9 9 9 9 9 9 9 9 9 9 10 10 10 9 9 9 10 10 11 9 10 11 12 10 10 10 11 11 11 11 11 10 10 9 9 9 9 9 9
3 8 10 8 9 9 9 8 9 12 12 12 11 11 13 14 15 15 16 16 16 14 15 16 17 17 16 15 14 13 13 12 12 11 11 10 9 8 9 6 10 10 9 9 9 10 10 9 9 9 9 10 9 9 9 9 9 9 9 8 9 9 9 8 8 8 8 9 10 10 11 11 11 10 10 11 12 12 12 11 11 10 9 9 9 9 9
10 11 10 9 10 11 8 7 8 9 11 13 14 15 16 17 17 17 16 13 14 14 16 16 16 17 16 15 16 15 13 12 11 11 11 11 10 9 10 10 9 9 9 9 9 10 9 8 8 8 9 8 8 9 8 8 8 8 8 8 8 8 8 7 7 7 7 8 7 8 9 11 12 11 10 10 11 11 10 9 9 9 9 9 9 8 9
6 8 10 15 8 7 8 9 10 11 13 15 16 16 17 16 17 17 17 15 14 15 15 16 16 17 16 15 15 14 12 12 12 12 11 10 10 9 8 8 9 9 9 9 8 9 9 8 8 8 8 8 8 8 7 7 7 7 8 8 8 8 7 7 7 7 7 7 7 7 7 8 10 9 9 11 9 9 8 6 9 11 10 8 8 8 7
4 12 17 9 6 13 11 11 10 12 13 14 16 17 17 16 16 16 17 19 18 16 15 14 16 16 16 16 15 14 12 12 12 12 11 10 9 9 9 9 10 10 9 9 9 9 8 7 8 8 8 8 8 8 8 7 7 7 7 6 7 7 8 8 7 7 7 7 7 7 7 6 7 8 8 8 10 10 9 9 11 12 12 12 15 16 11
13 15 13 9 10 12 13 13 12 12 12 14 16 16 16 16 16 16 16 16 17 17 16 15 14 16 16 15 15 15 15 14 13 12 10 10 10 10 9 9 10 10 10 10 10 10 8 8 8 8 8 8 8 8 8 8 8 7 7 7 7 7 7 7 7 7 7 7 7 8 7 7 8 6 5 8 6 4 4 5 6 10 12 13 13 12 12
10 10 12 13 14 16 14 13 13 12 12 14 15 16 15 15 15 16 16 15 15 16 16 16 15 15 16 16 15 15 15 13 12 11 10 9 10 10 10 10 10 9 9 9 9 9 9 8 8 8 8 8 8 9 9 9 9 9 9 9 8 7 6 6 6 7 7 7 7 7 8 8 7 7 8 8 5 6 3 2 2 7 11 11 11 11 10
14 13 14 14 15 15 14 14 14 14 14 14 14 14 15 15 16 16 16 16 15 15 17 17 17 16 16 16 15 15 13 13 12 11 10 10 10 10 10 11 9 8 9 9 9 9 9 9 8 8 8 8 8 8 8 8 8 9 9 9 9 9 8 6 7 7 7 7 7 7 7 8 7 7 7 6 7 8 4 6 6 3 4 7 10 11 9
13 13 16 16 14 14 13 13 13 14 14 15 16 16 16 17 16 16 15 16 16 16 16 17 17 17 16 15 16 14 14 13 13 11 11 10 10 9 9 9 10 10 10 10 10 9 8 8 8 8 8 8 7 7 8 8 8 7 7 7 8 8 9 10 8 7 8 7 7 7 7 7 8 8 7 7 7 7 8 9 9 7 6 6 4 7 8
10 11 10 11 13 13 14 15 17 15 15 16 17 18 18 17 17 17 17 17 15 15 15 15 16 15 15 14 14 14 13 14 13 13 11 10 9 9 9 11 11 10 10 10 9 8 8 8 8 8 8 8 8 8 8 7 7 7 7 6 6 6 7 8 8 8 8 8 7 7 7 7 7 8 7 8 7 7 8 9 8 7 8 8 6 4 9
8 7 9 12 14 16 16 15 16 17 17 17 17 17 18 18 17 17 16 16 16 16 15 15 14 13 14 14 14 14 12 12 13 13 11 10 10 9 10 11 10 9 9 9 8 8 8 8 8 8 8 7 8 8 8 9 8 9 9 8 7 7 6 6 6 6 6 6 7 6 6 7 8 7 7 7 7 7 8 8 7 9 9 9 7 3 5
9 11 14 15 17 18 19 18 17 18 18 17 17 17 17 18 17 16 16 16 15 15 16 16 14 13 13 13 13 12 13 13 13 11 10 10 10 9 10 10 10 10 9 9 9 9 8 7 8 8 8 7 7 7 7 8 8 9 10 10 9 7 8 9 7 7 7 7 6 4 6 7 7 7 7 7 7 7 7 7 8 6 8 10 9 9 10
13 14 16 16 17 17 18 19 18 18 18 17 18 17 16 15 16 17 17 15 14 14 15 15 15 15 13 10 14 13 12 12 11 11 10 10 9 9 10 10 9 8 8 8 9 8 8 8 7 7 6 7 6 6 5 6 6 7 8 8 9 7 7 9 9 6 7 6 7 7 7 6 6 7 7 7 8 8 7 7 7 7 8 8 9 9 10
16 17 18 16 15 17 17 17 18 17 17 16 16 16 16 16 17 16 14 13 13 12 13 13 13 13 12 12 11 12 11 11 11 10 10 9 10 10 8 8 10 9 9 9 9 8 8 7 7 7 6 6 5 5 4 5 6 6 7 6 6 5 3 8 3 7 6 7 6 7 7 7 7 7 6 7 7 7 7 7 6 5 7 7 8 8 8
17 17 16 16 16 17 17 17 18 18 18 17 15 14 14 12 12 12 12 12 12 12 12 12 11 12 12 11 11 11 11 11 11 10 10 9 9 10 9 8 9 8 8 8 8 8 8 7 7 6 6 6 6 5 5 4 4 5 5 5 6 6 7 8 5 5 6 6 7 7 7 7 6 6 7 6 6 7 7 5 5 6 8 7 6 6 6
11 14 16 15 14 16 18 17 16 16 14 13 13 13 13 13 12 11 11 11 12 12 11 11 11 11 11 10 10 11 11 10 8 8 10 10 10 10 9 7 8 8 8 8 8 7 6 6 5 5 5 6 5 4 4 4 3 4 5 5 4 5 5 5 5 5 5 6 7 7 7 7 7 7 7 6 6 6 7 4 7 6 5 7 7 6 3
11 15 16 15 13 15 17 17 15 14 14 14 12 12 12 12 12 12 12 12 11 11 12 11 11 10 10 9 8 5 4 4 5 5 9 7 5 4 6 8 8 8 8 7 7 6 6 6 5 5 6 5 5 4 3 4 4 5 6 6 5 4 4 4 5 5 4 6 6 6 6 6 6 6 6 6 6 6 6 6 6 7 4 5 7 6 3
16 16 14 13 15 16 16 15 14 15 14 13 12 12 13 14 14 13 13 12 10 11 11 10 10 9 9 8 6 7 7 6 7 7 8 6 2 1 6 9 9 8 7 7 6 6 5 6 7 8 3 5 3 2 4 7 4 3 2 3 6 5 4 3 4 4 4 5 6 5 5 2 2 5 5 5 6 7 7 7 6 5 4 5 6 6 6
13 15 15 16 14 15 15 13 13 14 14 13 11 11 12 14 14 13 11 11 11 11 10 9 9 9 7 6 5 5 6 5 5 5 4 3 2 2 6 8 8 8 7 7 6 5 4 6 5 6 3 5 4 4 5 8 6 3 3 2 2 4 4 4 4 4 2 4 4 4 3 4 3 4 4 5 5 6 6 7 7 7 6 6 5 4 6
14 16 18 16 16 16 14 13 12 12 13 15 13 12 12 12 11 10 10 11 11 11 10 10 11 10 8 7 6 5 5 5 6 5 4 4 6 5 6 6 5 5 5 4 5 6 6 5 3 4 3 4 4 4 3 4 6 7 3 3 2 3 2 1 5 3 5 7 5 4 3 4 3 4 4 5 5 5 4 5 6 5 6 6 4 4 4
14 13 16 16 15 14 15 14 12 12 13 14 12 13 11 11 11 12 11 10 10 10 10 11 11 11 10 11 10 9 8 4 4 4 4 4 5 5 4 5 3 3 6 6 6 6 8 8 7 6 3 5 5 5 3 3 5 7 1 3 2 2 2 3 5 3 3 1 4 4 3 3 4 3 4 5 4 4 4 3 4 5 5 5 5 6 4
14 14 14 14 15 15 15 15 14 13 13 12 12 11 11 11 11 11 11 11 11 10 11 12 12 10 11 12 11 11 11 10 8 6 5 7 5 5 5 5 6 7 7 6 6 7 8 5 6 4 5 5 4 5 5 2 5 5 2 1 2 3 1 2 2 2 2 2 2 4 2 4 3 4 4 4 4 4 5 5 4 5 5 5 5 6 6
15 15 14 13 13 13 13 14 14 13 12 11 10 10 11 10 11 11 11 11 11 11 12 12 11 11 12 12 11 11 11 10 10 10 9 7 6 6 4 4 7 7 8 5 5 8 8 8 6 4 6 4 5 5 5 4 6 4 3 1 4 5 3 4 4 2 3 3 3 3 2 2 4 4 4 4 4 5 5 5 5 6 6 6 6 6 6
15 15 14 13 12 12 12 12 11 11 10 10 10 10 10 11 11 11 11 11 11 12 12 11 11 12 12 12 12 11 11 11 10 10 9 8 7 5 4 6 8 7 10 9 9 8 6 6 5 4 5 5 6 4 6 3 6 1 1 3 0 1 0 1 1 2 2 2 3 3 3 3 4 4 4 5 4 5 5 5 6 6 6 6 6 6 6
16 16 15 13 13 13 12 12 11 12 12 11 10 10 10 11 10 11 11 11 11 12 11 11 11 11 12 11 12 11 10 10 10 9 8 7 3 2 6 8 8 9 11 7 6 6 7 6 5 3 7 4 6 8 4 6 5 4 4 5 4 2 3 1 2 2 3 4 3 3 4 4 4 4 4 5 5 5 5 5 6 6 6 6 6 6 6
16 14 13 13 12 12 12 11 10 10 10 11 10 10 11 10 10 11 11 11 12 12 11 12 11 11 11 11 11 9 9 9 8 8 7 5 5 2 4 8 8 10 11 7 7 6 6 6 5 10 12 9 9 8 5 5 3 1 1 2 3 2 1 1 3 3 3 3 4 4 4 4 4 4 4 4 5 5 6 6 5 6 7 6 6 6 7
13 13 13 13 12 11 10 10 11 10 10 10 11 11 10 10 11 11 12 11 11 10 10 11 10 9 9 10 9 8 8 8 7 8 7 7 6 7 6 9 10 9 8 8 6 5 5 5 11 14 10 10 8 6 5 5 4 1 4 2 2 3 3 4 3 3 3 4 4 4 3 4 4 4 4 4 3 5 6 6 6 6 6 5 6 6 6
14 13 13 13 13 10 10 10 10 10 11 11 11 11 10 11 12 12 12 11 9 9 10 10 9 9 9 9 7 8 9 8 7 7 6 5 5 8 10 8 9 8 11 11 6 6 4 14 15 11 12 10 9 7 6 6 6 2 4 4 4 3 4 4 3 3 3 4 4 5 5 4 6 7 6 5 5 5 5 5 6 7 6 6 6 6 7
13 13 12 12 12 11 12 11 11 11 12 11 11 10 10 11 11 10 10 10 10 9 10 10 9 9 8 8 7 5 6 6 5 5 7 7 12 9 9 8 11 11 10 8 7 6 6 10 10 12 11 10 10 7 7 7 6 4 4 4 4 4 4 4 4 4 4 4 4 5 5 4 5 5 5 5 5 4 5 4 4 6 6 5 5 5 5
13 13 12 12 12 12 12 12 11 11 11 11 11 10 10 10 10 10 10 9 9 9 9 9 9 9 9 9 8 6 6 6 4 6 6 3 4 9 8 6 6 9 10 6 5 3 9 13 13 13 11 10 8 8 7 7 7 6 5 5 5 4 5 5 4 4 5 5 5 5 5 5 5 6 6 5 5 5 5 3 3 5 3 3 4 5 6
13 12 12 12 12 12 12 12 10 10 10 11 11 10 10 11 10 9 9 9 10 10 9 9 9 9 8 8 7 6 6 7 7 6 8 6 6 6 7 11 13 11 9 6 7 6 9 10 11 12 12 9 8 8 8 7 7 6 6 5 5 5 5 6 6 5 5 6 7 7 8 7 6 6 6 5 5 5 5 5 4 4 3 3 4 6 6
12 12 12 11 12 12 12 12 11 10 10 10 10 10 10 10 9 9 9 8 8 8 8 8 8 7 7 7 7 6 6 6 4 4 5 8 7 6 8 11 9 11 9 7 9 7 12 12 10 9 9 7 8 8 8 8 8 7 6 6 6 6 5 2 4 3 6 7 7 7 6 6 6 6 5 5 3 5 4 4 4 2 7 3 6 4 4
12 12 11 11 10 10 10 10 11 11 10 10 10 10 11 10 9 9 9 9 8 8 8 8 8 8 8 7 8 8 7 6 6 3 4 5 4 2 2 3 11 8 7 7 8 5 8 7 7 7 8 9 9 9 8 8 7 7 6 6 6 7 6 5 7 6 6 5 5 5 6 6 7 7 5 6 6 5 5 7 5 5 5 4 4 4 4
11 10 10 11 11 11 11 11 11 11 11 11 11 11 11 10 9 9 9 9 9 9 8 10 10 9 9 8 7 7 7 7 8 7 5 6 6 8 7 4 4 7 7 7 8 8 7 10 10 11 10 9 9 9 8 6 7 7 7 6 6 6 6 7 7 7 6 4 5 6 6 6 6 6 5 7 6 7 6 5 5 5 6 5 4 4 4
Wind_Direction
289 219 284 232 200 201 199 210 214 209 204 200 205 210 212 212 218 211 149 153 150 159 153 139 141 140 137 135 134 135 135 131 128 130 125 118 115 112 105 100 88 82 79 76 68 62 59 56 53 47 46 44 41 38 33 29 26 24 21 20 18 21 19 14 9 10 12 11 4 3 5 10 7 5 9 9 17 26 23 13 13 20 26 33 37 43 30
212 257 237 257 219 200 203 206 217 212 202 207 209 204 208 220 200 127 157 134 125 139 127 136 136 134 130 126 128 132 136 137 135 130 125 120 118 114 108 101 93 86 84 78 67 60 59 57 54 50 48 44 42 41 36 33 31 26 22 21 21 19 19 16 14 12 15 16 13 11 11 13 11 10 11 10 8 16 18 19 18 28 39 60 62 64 53
178 209 238 235 231 209 203 205 207 208 216 216 203 173 83 73 99 131 125 122 115 119 131 130 132 128 124 126 135 139 137 138 136 130 127 125 119 112 106 105 98 90 87 74 64 63 59 54 57 53 45 45 42 45 39 37 34 30 26 23 23 21 19 17 15 17 17 18 16 16 14 15 15 17 16 12 12 15 19 24 20 20 32 35 34 30 44
162 220 204 204 170 175 131 130 172 193 184 127 123 93 39 141 130 135 124 126 126 118 122 119 129 131 132 136 138 137 139 137 137 134 130 127 119 115 111 106 101 97 90 65 51 61 58 54 57 50 48 47 42 39 39 39 35 35 33 28 24 24 22 20 19 20 20 19 20 20 18 18 19 22 24 22 22 21 22 28 32 23 28 27 28 28 31
178 210 202 158 157 163 139 102 45 20 148 147 87 77 51 92 134 154 156 140 138 132 132 129 136 134 133 133 137 137 138 139 137 131 127 124 121 114 111 105 98 95 85 65 54 50 52 49 48 44 40 46 43 31 35 34 32 34 37 29 28 26 22 22 23 23 23 23 23 23 21 24 24 27 29 28 25 26 23 16 18 28 25 33 34 30 35
185 228 175 148 164 184 175 49 8 360 97 124 117 86 68 49 105 82 85 124 132 134 138 133 138 131 134 135 136 140 140 140 134 126 125 122 118 117 112 103 95 80 67 59 50 37 40 43 46 42 39 44 45 38 36 39 33 32 22 41 32 27 23 24 25 25 28 27 28 26 27 29 31 31 32 31 28 27 27 27 31 27 15 20 29 33 39
186 195 156 163 197 173 66 220 168 135 98 96 100 95 88 94 93 102 107 120 129 132 127 125 122 117 115 117 121 119 116 123 127 127 125 124 120 113 109 102 90 73 65 58 50 39 30 30 35 40 34 40 41 44 41 47 40 25 36 39 33 29 26 25 25 25 27 30 27 28 30 33 35 35 32 29 28 26 27 30 34 33 26 23 22 30 34
190 187 173 185 155 84 141 126 141 122 128 108 87 73 72 83 99 115 121 125 124 123 121 119 120 118 116 109 100 108 107 119 126 128 127 121 108 100 95 89 72 65 56 51 46 38 25 28 33 22 32 32 43 48 47 48 41 39 43 37 36 31 29 27 27 26 29 31 32 32 33 34 37 36 35 32 29 28 30 29 31 30 31 32 27 28 27
181 180 168 65 122 144 136 141 159 177 147 171 138 121 74 82 102 116 120 122 122 123 125 123 122 120 112 98 83 71 108 108 119 118 113 105 102 98 90 82 78 65 51 52 43 41 42 30 28 20 23 41 44 44 47 45 35 47 44 40 38 35 32 30 28 30 32 35 37 37 36 38 39 38 36 33 31 29 34 31 30 26 29 33 31 31 30
199 181 158 155 184 179 179 186 135 34 32 17 81 102 112 98 109 133 135 132 134 129 131 134 135 137 105 89 98 108 110 110 114 112 104 99 97 97 95 87 81 70 61 62 55 48 49 44 32 22 28 49 50 48 47 43 47 43 42 41 41 38 36 33 33 34 35 40 42 41 40 41 41 41 41 40 36 33 35 33 33 28 29 35 35 34 33
198 198 181 176 179 92 88 135 154 150 170 214 54 141 110 148 142 147 146 139 139 140 142 148 159 164 128 130 136 143 138 130 124 115 108 102 97 94 90 87 84 78 72 65 62 57 51 51 46 45 41 43 53 54 45 47 45 45 42 43 43 43 41 38 34 32 36 41 46 48 48 47 44 46 44 41 42 43 45 45 42 38 33 41 39 37 35
196 188 195 168 38 94 108 118 142 167 79 13 250 207 160 157 153 150 147 143 146 146 151 158 172 183 153 154 155 149 137 131 125 117 115 110 105 99 93 87 85 86 86 79 70 61 57 54 55 56 53 55 56 54 53 55 52 49 46 47 50 51 51 47 45 46 46 43 42 44 48 47 45 42 41 42 38 44 44 45 47 45 41 43 44 44 38
171 168 119 87 117 61 111 120 140 99 194 227 194 200 115 151 143 146 143 142 142 144 149 169 107 7 89 129 139 143 135 131 125 117 115 113 111 107 100 94 94 86 78 74 69 67 63 60 63 63 64 65 63 57 52 59 58 54 53 55 58 60 61 57 53 51 51 50 49 46 43 44 47 44 39 35 27 36 49 50 46 48 50 46 41 37 34
186 179 143 99 90 65 85 122 132 86 210 192 154 89 132 136 137 134 140 138 140 139 126 107 99 102 107 124 130 134 136 132 124 117 112 108 99 91 87 92 99 91 87 84 80 72 63 61 62 63 65 65 59 60 59 62 60 58 58 62 63 65 63 60 57 53 50 49 52 51 47 47 49 47 41 37 31 25 30 40 41 41 40 46 46 41 36
215 153 128 156 177 168 245 160 158 11 269 90 117 128 114 126 122 129 133 134 129 122 112 113 115 118 122 127 129 129 130 130 126 121 120 114 113 111 108 101 90 95 95 86 79 77 70 65 64 66 66 65 63 62 60 57 61 63 63 67 71 67 65 62 61 58 53 50 49 47 47 46 47 46 38 35 34 32 33 33 35 38 40 39 42 45 41
226 195 151 92 67 121 22 286 167 78 81 123 126 128 123 123 126 125 124 119 125 120 122 122 121 122 124 122 124 125 125 126 124 121 115 109 107 106 99 96 96 95 92 87 84 76 74 68 67 66 65 66 63 64 62 60 59 60 63 59 60 62 60 60 58 57 59 60 56 53 50 48 48 44 37 36 36 33 29 32 34 35 31 34 39 42 40
23 45 97 108 78 89 82 86 97 106 112 120 124 121 127 130 130 132 124 123 122 125 123 124 126 125 127 127 129 127 129 129 126 124 121 117 113 109 106 105 109 103 93 91 87 85 76 70 69 72 68 69 70 66 62 62 63 63 62 64 64 59 54 54 58 60 52 50 52 55 57 54 50 44 38 33 32 27 29 33 36 37 33 37 40 38 40
90 74 85 116 107 91 82 90 95 103 112 112 120 124 124 128 133 137 129 129 126 125 128 126 128 129 133 129 128 124 121 120 121 118 114 111 109 105 106 111 104 100 99 93 90 86 84 82 79 73 72 72 71 70 69 66 68 67 65 64 62 63 63 56 53 58 61 58 50 44 43 48 52 51 45 39 35 29 26 25 28 31 32 34 35 35 37
182 85 121 105 101 97 88 99 109 107 114 119 122 119 117 124 125 123 125 127 131 130 130 127 127 126 128 126 128 130 130 129 132 126 122 121 122 122 119 119 116 113 107 103 97 91 87 80 77 77 79 78 73 70 66 66 65 67 71 69 65 62 64 68 65 57 53 54 56 49 42 39 41 46 48 43 38 33 27 23 24 25 28 29 33 32 30
56 116 126 104 89 102 115 118 114 113 113 116 117 116 114 116 121 120 122 127 127 132 127 131 130 130 133 130 127 126 129 125 122 118 112 104 88 63 42 90 129 120 112 103 93 90 83 76 74 74 72 70 70 70 71 69 68 66 63 64 72 71 66 61 62 65 68 68 64 62 53 45 39 37 46 53 47 37 30 23 18 22 25 25 25 34 29
99 111 120 123 106 82 99 113 104 114 120 116 118 118 117 117 119 123 126 128 130 131 131 133 132 132 134 133 131 132 132 122 114 110 105 96 86 76 77 62 69 93 100 98 94 92 88 83 79 74 72 72 77 82 80 77 73 72 70 67 69 73 74 73 70 66 64 59 65 78 77 68 61 49 43 49 58 61 49 34 31 25 26 29 17 40 44
153 169 164 158 140 138 123 127 122 117 121 121 120 122 120 122 125 126 126 124 124 128 130 133 133 133 132 132 131 126 122 115 110 109 105 102 97 99 98 100 102 105 100 97 95 92 86 81 79 76 73 70 67 68 72 81 84 83 83 76 65 57 53 55 56 55 52 57 58 61 89 102 91 76 40 35 52 84 79 81 70 53 51 46 22 16 54
139 130 152 183 88 112 131 132 128 127 125 127 129 128 130 128 127 128 128 129 128 130 133 135 134 132 135 136 134 127 122 119 118 115 116 115 115 111 113 114 111 107 108 109 107 99 94 91 89 81 75 72 71 67 65 59 58 65 71 75 74 75 64 54 37 50 53 51 47 53 48 65 115 116 107 73 36 45 89 113 96 86 77 66 49 36 26
86 133 147 114 112 127 137 138 131 128 130 130 130 131 129 128 129 129 127 130 131 131 131 131 133 134 132 132 132 130 129 128 124 121 117 117 116 118 119 117 118 123 129 126 116 106 104 97 87 81 78 76 72 68 64 62 57 54 55 59 71 68 65 65 47 43 58 53 54 48 50 46 34 40 99 121 108 67 40 56 88 101 100 88 79 71 55
101 84 78 93 113 121 128 129 127 125 126 129 129 129 127 127 127 128 129 128 129 131 132 133 133 133 132 131 131 131 129 125 125 125 125 118 117 119 120 124 132 133 122 110 107 101 91 86 83 79 78 72 71 72 73 70 64 58 53 49 46 47 60 68 74 61 51 53 48 50 48 42 46 44 33 30 81 133 118 47 72 106 98 95 96 92 87
87 96 102 111 115 118 124 124 121 124 126 130 125 125 125 125 124 127 127 129 128 130 130 131 132 133 132 132 131 130 129 132 140 140 126 124 122 123 132 130 121 113 109 108 106 101 98 92 86 83 77 73 73 74 74 74 76 77 74 68 54 35 22 50 56 48 54 49 47 51 47 48 42 39 35 41 37 25 83 141 148 116 87 98 107 103 87
99 111 118 115 118 123 128 128 130 131 131 130 127 124 123 122 120 123 125 126 127 129 131 131 131 134 133 132 135 140 136 143 156 140 121 116 111 112 121 120 118 116 115 107 95 90 99 100 95 86 82 81 79 74 68 65 65 66 71 82 93 77 32 12 53 51 45 43 46 43 45 44 45 36 40 35 40 46 34 19 16 33 88 108 68 55 87
128 139 145 135 137 135 127 126 128 129 129 127 126 127 127 127 125 126 126 127 128 127 126 130 133 136 136 138 136 134 150 158 135 127 120 113 109 112 115 116 113 109 108 116 123 124 108 98 93 87 81 78 74 69 69 66 61 60 61 58 60 64 76 65 58 56 47 49 39 38 35 45 40 43 37 28 34 46 37 27 18 37 40 37 112 112 101
136 136 118 119 120 121 121 122 125 127 127 128 128 128 130 129 128 128 130 131 132 132 134 134 135 133 135 138 142 146 150 137 131 127 118 113 111 115 125 123 119 121 119 118 115 111 106 99 94 90 85 79 76 78 76 70 63 57 45 42 45 49 53 75 69 56 71 60 49 35 43 44 39 40 38 37 34 41 44 30 28 20 40 33 26 102 193
120 120 122 123 126 127 126 126 127 128 128 130 131 132 134 134 133 134 133 135 136 133 132 133 133 139 145 157 150 135 139 135 128 125 122 120 119 132 131 129 132 127 124 118 116 113 108 102 95 89 86 87 96 100 99 97 89 79 72 60 55 53 44 16 61 71 59 54 41 46 47 54 52 36 34 44 32 37 39 50 32 26 32 43 38 27 19
127 126 126 127 129 132 130 130 132 134 136 139 138 137 137 134 132 134 136 136 134 133 141 147 153 156 163 152 124 130 133 129 131 127 124 122 124 131 131 138 136 132 128 121 112 108 108 102 100 102 108 106 92 86 87 96 97 94 90 86 84 54 349 349 41 38 52 53 56 34 35 51 54 50 41 35 39 29 36 35 31 28 33 41 43 30 21
128 129 129 131 131 130 129 132 132 133 132 132 134 136 139 139 138 135 132 133 134 140 140 142 134 129 129 132 135 136 134 135 131 127 123 129 142 139 139 124 106 115 121 121 121 116 108 109 106 98 94 93 96 96 90 73 81 89 88 83 73 82 44 267 120 64 61 56 40 54 39 21 40 50 39 40 37 39 37 31 29 31 31 42 50 40 25
133 133 134 134 132 132 132 136 134 135 136 135 134 133 131 127 126 129 130 134 140 143 144 137 131 127 127 131 136 137 137 134 132 131 132 134 126 121 126 127 132 123 117 120 123 121 119 117 113 111 103 97 97 89 75 67 74 76 94 109 112 103 88 52 3 58 68 65 54 34 45 34 21 35 48 34 45 47 30 26 23 20 31 29 39 50 38
140 139 137 138 141 142 139 137 135 130 127 126 127 130 128 129 128 131 137 144 143 139 131 128 128 130 134 135 134 134 138 139 140 137 133 131 128 127 130 136 129 128 121 125 122 119 120 109 94 88 83 75 59 57 84 98 95 100 91 87 66 60 57 71 81 59 58 44 62 55 38 37 34 24 19 33 29 30 36 20 25 22 20 19 24 75 125
147 132 128 125 130 131 132 133 129 128 128 129 130 133 139 137 146 147 146 145 144 134 132 133 135 137 134 125 111 100 95 105 111 130 117 104 102 125 140 131 126 134 138 126 115 110 118 119 107 110 120 111 100 88 66 43 76 89 66 44 50 81 88 76 48 42 40 79 48 43 45 31 42 21 11 14 20 14 35 33 19 14 23 15 17 17 108
133 126 124 127 128 130 133 130 132 136 140 143 151 158 152 151 152 144 148 146 139 135 135 138 139 132 114 94 88 99 102 93 88 90 102 114 124 216 148 143 144 142 129 122 116 122 122 93 53 357 7 91 72 66 17 359 339 35 354 165 134 108 89 70 89 70 34 36 61 50 29 142 250 34 13 16 13 9 6 20 22 0 15 9 11 2 1
113 126 129 125 131 137 135 136 150 156 147 144 152 158 149 140 147 152 145 137 139 141 142 138 113 95 91 97 106 110 118 117 114 115 117 146 180 190 158 146 145 139 140 136 141 138 122 110 39 335 290 116 82 73 44 12 328 285 168 89 34 359 57 73 26 49 100 73 46 68 28 29 29 24 23 12 20 16 359 359 14 360 7 355 0 358 349
140 138 135 137 141 139 139 149 163 142 137 146 151 146 147 146 145 140 137 137 140 141 137 124 116 116 119 122 115 106 89 91 104 114 140 166 172 165 154 147 143 151 154 132 157 145 122 129 199 235 247 103 96 96 78 346 319 313 356 52 99 105 337 6 107 354 7 54 29 9 23 14 19 12 6 4 8 7 4 2 358 348 341 344 347 343 340
140 139 139 138 139 144 146 146 142 146 144 142 146 149 155 143 139 139 139 139 136 136 131 129 132 137 140 140 139 139 135 126 119 137 157 187 181 164 160 155 102 79 110 135 168 123 126 157 195 219 175 102 112 117 126 256 278 287 85 107 18 7 79 353 21 73 78 32 58 337 347 23 10 350 4 12 350 356 349 352 299 329 332 343 336 331 335
142 143 144 146 146 148 148 146 148 153 147 148 146 145 139 142 142 139 139 139 138 138 135 139 145 146 147 145 145 146 150 154 159 163 178 180 193 185 155 127 119 125 122 158 163 128 142 186 227 219 131 139 153 132 142 271 304 284 147 71 153 130 83 297 112 7 25 11 117 215 329 357 7 334 18 343 345 352 341 339 333 339 329 332 338 348 349
148 149 156 155 149 152 150 146 146 145 145 147 142 137 147 146 137 137 136 138 141 141 141 149 148 147 147 146 144 142 147 153 162 168 175 185 188 174 149 135 129 129 158 177 130 121 153 193 229 196 134 164 144 116 139 189 250 274 51 24 350 2 19 39 328 32 21 349 356 341 21 323 319 314 6 348 344 342 345 339 332 331 342 344 354 348 347
149 154 156 148 147 144 142 144 142 145 147 145 141 148 146 142 141 137 138 140 141 143 148 151 148 146 145 143 141 144 149 159 166 172 184 192 186 167 148 140 150 142 107 97 117 135 169 194 238 248 154 158 124 87 340 232 237 198 183 126 52 177 177 214 311 26 326 346 346 345 342 327 330 330 338 335 342 343 343 336 331 334 341 344 337 345 355
155 156 150 152 152 151 153 151 156 154 155 150 153 155 146 142 137 137 139 143 145 150 154 145 147 150 150 150 150 156 158 166 174 181 191 218 226 156 154 144 148 132 149 173 169 165 175 182 188 169 54 38 123 127 198 260 253 161 192 147 155 255 264 23 331 316 314 334 344 329 322 344 336 327 327 325 333 334 334 336 328 330 328 334 337 336 342
157 152 152 158 156 160 154 152 152 154 152 150 156 154 150 142 140 142 146 151 155 159 155 152 162 161 161 156 163 166 167 175 178 182 191 173 165 100 131 148 141 140 168 181 190 193 171 182 179 109 108 105 125 160 212 241 265 134 157 319 324 304 313 247 268 307 313 322 318 325 330 338 316 323 324 319 322 324 326 325 326 327 335 332 328 332 330
160 153 159 161 154 158 157 157 155 158 150 151 153 157 151 148 145 149 155 161 164 167 156 160 165 162 163 163 174 171 171 178 180 180 192 172 181 170 159 108 127 146 182 216 214 205 194 152 119 129 133 139 160 193 229 244 243 287 350 319 209 242 306 313 309 300 305 300 294 293 308 299 295 292 291 312 332 323 323 323 331 325 314 317 330 320 320
162 160 164 164 157 166 159 154 152 150 146 154 153 154 154 152 151 155 161 169 169 164 162 166 167 170 169 173 191 180 172 182 190 182 208 193 217 173 157 163 162 159 174 198 219 228 143 122 137 144 147 160 159 198 232 256 275 248 196 217 235 257 256 253 271 285 295 302 296 290 293 334 335 317 323 323 331 311 309 328 312 308 329 337 324 327 330
165 161 161 166 159 171 157 153 152 153 153 158 157 158 161 158 159 162 170 172 170 169 169 171 176 176 182 180 193 185 187 181 185 183 231 113 83 83 83 81 111 133 159 195 212 229 142 141 145 151 159 165 185 211 225 235 236 244 247 254 284 284 273 276 268 266 270 275 296 307 293 265 272 289 282 274 279 300 319 313 307 314 319 326 312 307 306
167 167 167 167 171 177 161 157 159 162 164 166 161 159 161 160 167 169 172 175 174 180 178 175 179 179 185 189 202 206 204 186 191 179 204 239 162 138 161 180 148 154 173 213 227 44 125 153 153 161 163 169 190 221 233 246 254 241 241 266 272 264 259 261 283 297 287 280 276 272 275 277 258 258 280 293 296 283 290 304 303 307 309 304 316 326 322
172 171 170 175 176 178 171 163 167 166 170 165 165 163 167 168 173 175 179 181 177 182 183 182 181 182 183 194 203 210 221 217 202 197 167 199 204 197 163 134 145 158 189 210 214 198 153 161 164 168 166 176 203 216 235 238 241 257 279 283 279 290 312 310 303 313 323 318 308 301 297 287 276 270 273 278 283 289 292 292 298 299 318 343 323 305 303
176 176 176 181 179 181 184 175 172 174 171 169 174 167 170 175 180 180 179 186 185 188 186 184 188 187 190 187 200 214 213 229 234 286 190 190 188 191 146 150 156 171 201 225 225 186 150 158 158 167 172 197 212 228 233 238 256 260 253 240 242 252 262 310 356 341 292 291 283 281 280 283 290 288 291 287 272 281 285 282 286 300 129 215 279 287 298
176 181 182 182 182 183 180 181 177 176 175 174 181 166 171 186 188 183 182 187 188 192 205 191 194 195 195 198 189 200 205 205 205 207 220 189 233 292 304 161 137 168 194 222 251 190 149 179 174 174 192 211 218 225 237 246 252 251 238 249 256 258 250 209 230 242 243 259 280 293 289 294 295 296 294 296 288 284 279 282 283 283 279 290 289 286 285
182 189 165 173 183 180 180 186 179 184 179 178 196 171 174 188 192 188 187 190 201 190 208 211 197 194 202 193 193 196 193 202 196 171 234 258 205 195 178 247 224 164 194 217 232 246 205 174 165 173 190 205 219 232 233 237 245 254 272 272 260 258 249 263 279 285 282 271 247 254 257 256 260 259 259 264 272 275 277 277 280 278 273 274 276 277 279